Date,TemperatureHighF,TemperatureAvgF,TemperatureLowF,DewpointHighF,DewpointAvgF,DewpointLowF,HumidityHigh,HumidityAvg,HumidityLow,PressureMaxIn,PressureMinIn,WindSpeedMaxMPH,WindSpeedAvgMPH,GustSpeedMaxMPH,PrecipitationSumIn
2012-1-1,69.5,53.9,35.8,-99.9,-99.9,-99.9,0,0,100,30.32,30.03,19,3,19,0.00
2012-1-2,60.1,48.5,34.8,-99.9,-99.9,-99.9,0,0,100,30.15,30.00,15,3,15,0.00
2012-1-3,40.2,32.8,25.4,-99.9,-99.9,-99.9,0,0,100,30.48,30.08,19,4,20,0.00
2012-1-4,46.7,30.5,17.8,-99.9,-99.9,-99.9,0,0,100,30.59,30.31,13,2,14,0.00
2012-1-11,63.0,61.0,58.0,63.0,-96.2,-99.9,100,2,100,29.82,29.67,15,4,16,0.00
2012-1-12,64.5,55.5,47.4,-99.9,-99.9,-99.9,0,0,100,29.85,29.69,28,6,28,0.00
2012-1-13,64.5,45.2,35.2,-99.9,-99.9,-99.9,0,0,100,30.19,29.71,27,6,29,0.00
2012-1-14,50.7,38.0,28.6,-99.9,-99.9,-99.9,0,0,100,30.38,30.19,10,2,10,0.00
2012-1-15,50.9,39.4,27.6,-99.9,-99.9,-99.9,0,0,100,30.70,30.27,20,3,22,0.00
2012-1-16,54.4,40.3,26.5,-99.9,-99.9,-99.9,0,0,100,30.77,30.50,14,2,14,0.00
2012-1-17,69.1,57.8,45.2,-99.9,-99.9,-99.9,0,0,100,30.50,30.12,20,5,24,0.00
2012-1-18,61.0,52.0,38.3,-99.9,-99.9,-99.9,0,0,100,30.19,29.99,18,4,20,0.00
2012-1-19,52.8,41.2,30.3,-99.9,-99.9,-99.9,0,0,100,30.36,30.18,13,2,13,0.00
2012-1-20,65.1,50.5,35.8,-99.9,-99.9,-99.9,0,0,100,30.33,30.23,7,2,8,0.00
2012-1-21,71.1,61.1,54.8,-99.9,-99.9,-99.9,0,0,100,30.25,30.02,26,4,26,0.00
2012-1-22,57.1,42.9,39.5,-99.9,-99.9,-99.9,0,0,100,30.45,30.16,19,4,20,0.00
2012-1-23,62.8,52.3,41.5,-99.9,-99.9,-99.9,0,0,100,30.41,30.16,12,2,12,0.00
2012-1-24,77.5,64.5,46.9,-99.9,-99.9,-99.9,0,0,100,30.31,30.16,16,2,16,0.00
2012-1-25,65.9,51.4,40.7,-99.9,-99.9,-99.9,0,0,100,30.42,30.29,11,2,11,0.00
2012-1-26,72.5,58.5,42.8,-99.9,-99.9,-99.9,0,0,100,30.29,29.98,17,3,18,0.00
2012-1-27,70.5,63.2,45.9,-99.9,-99.9,-99.9,0,0,100,30.12,29.78,36,6,36,0.00
2012-1-28,64.6,49.6,36.6,-99.9,-99.9,-99.9,0,0,100,30.27,30.11,12,2,13,0.00
2012-1-29,58.8,44.2,32.0,-99.9,-99.9,-99.9,0,0,100,30.47,30.27,15,2,15,0.00
2012-1-30,63.4,44.2,29.8,-99.9,-99.9,-99.9,0,0,100,30.58,30.43,13,2,13,0.00
2012-1-31,68.5,48.7,31.9,-99.9,-99.9,-99.9,0,0,100,30.58,30.43,17,2,17,0.00
2012-2-1,73.6,59.6,48.8,-99.9,-99.9,-99.9,0,0,100,30.44,30.22,16,3,19,0.00
2012-2-2,74.2,60.7,49.0,-99.9,-99.9,-99.9,0,0,100,30.38,30.12,19,3,19,0.00
2012-2-3,60.1,47.2,37.8,-99.9,-99.9,-99.9,0,0,100,30.58,30.38,17,3,17,0.00
2012-2-4,68.5,55.6,41.2,-99.9,-99.9,-99.9,0,0,100,30.50,30.15,14,3,15,0.00
2012-2-5,64.2,55.7,43.5,-99.9,-99.9,-99.9,0,0,100,30.33,30.06,17,4,17,0.00
2012-2-6,54.2,46.6,38.4,-99.9,-99.9,-99.9,0,0,100,30.39,30.22,12,3,12,0.00
2012-2-7,61.1,48.9,40.0,-99.9,-99.9,-99.9,0,0,100,30.29,30.22,7,2,11,0.00
2012-2-8,62.3,45.1,34.6,-99.9,-99.9,-99.9,0,0,100,30.29,30.15,6,1,11,0.00
2012-2-9,54.4,40.3,31.6,-99.9,-99.9,-99.9,0,0,100,30.42,30.27,15,1,15,0.00
2012-2-10,55.4,43.6,29.2,-99.9,-99.9,-99.9,0,0,100,30.38,29.99,7,1,8,0.00
2012-2-11,58.4,45.9,29.0,-99.9,-99.9,-99.9,0,0,100,30.14,29.80,22,3,23,0.00
2012-2-12,45.1,31.9,24.2,-99.9,-99.9,-99.9,0,0,100,30.40,30.14,23,4,23,0.00
2012-2-13,50.0,36.5,22.3,-99.9,-99.9,-99.9,0,0,100,30.47,30.30,14,2,14,0.00
2012-2-14,57.7,45.5,33.8,-99.9,-99.9,-99.9,0,0,100,30.32,30.19,10,1,10,0.00
2012-2-15,66.2,51.4,40.1,-99.9,-99.9,-99.9,0,0,100,30.41,30.22,15,2,15,0.00
2012-2-16,63.4,54.2,40.0,-99.9,-99.9,-99.9,0,0,100,30.41,30.09,16,2,16,0.00
2012-2-17,68.8,55.5,44.0,-99.9,-99.9,-99.9,0,0,100,30.22,30.10,14,2,15,0.00
2012-2-18,65.3,53.5,40.5,-99.9,-99.9,-99.9,0,0,100,30.25,30.07,13,2,13,0.00
2012-2-19,55.8,50.9,39.8,-99.9,-99.9,-99.9,0,0,100,30.07,29.72,21,4,26,0.00
2012-2-20,56.5,42.3,33.2,-99.9,-99.9,-99.9,0,0,100,30.47,29.90,24,4,24,0.00
2012-2-21,62.9,47.9,32.3,-99.9,-99.9,-99.9,0,0,100,30.50,30.16,11,3,11,0.00
2012-2-22,75.1,59.3,46.8,-99.9,-99.9,-99.9,0,0,100,30.17,29.82,20,5,21,0.00
2012-2-24,75.0,68.1,59.9,-99.9,-99.9,-99.9,0,0,100,29.90,29.76,23,7,23,0.00
2012-2-25,60.1,49.2,36.8,-99.9,-99.9,-99.9,0,0,100,30.46,29.90,20,4,21,0.00
2012-2-26,52.9,38.7,27.4,-99.9,-99.9,-99.9,0,0,100,30.66,30.45,12,2,12,0.00
2012-2-27,66.8,55.2,36.2,-99.9,-99.9,-99.9,0,0,100,30.59,30.43,17,2,18,0.00
2012-2-28,63.6,55.9,48.7,-99.9,-99.9,-99.9,0,0,100,30.52,30.42,18,4,18,0.00
2012-2-29,79.3,61.9,45.1,-99.9,-99.9,-99.9,0,0,100,30.44,30.03,23,4,23,0.00
2012-3-1,84.3,69.4,62.6,-99.9,-99.9,-99.9,0,0,100,30.05,29.88,25,6,25,0.00
2012-3-2,68.4,62.5,57.5,-99.9,-99.9,-99.9,0,0,100,30.10,29.90,22,4,22,0.00
2012-3-3,69.2,63.5,57.9,-99.9,-99.9,-99.9,0,0,100,29.90,29.78,26,4,26,0.00
2012-3-4,63.8,48.6,37.0,-99.9,-99.9,-99.9,0,0,100,30.20,29.73,20,3,20,0.00
2012-3-5,65.7,48.0,32.9,-99.9,-99.9,-99.9,0,0,100,30.63,30.12,31,4,38,0.00
2012-3-6,53.7,40.6,27.0,-99.9,-99.9,-99.9,0,0,100,30.81,30.63,18,3,18,0.00
2012-3-7,68.1,51.5,36.6,-99.9,-99.9,-99.9,0,0,100,30.79,30.59,15,3,15,0.00
2012-3-8,77.2,63.1,47.7,-99.9,-99.9,-99.9,0,0,100,30.59,30.29,21,5,23,0.00
2012-3-9,71.2,60.8,42.7,-99.9,-99.9,-99.9,0,0,100,30.40,30.21,17,3,18,0.00
2012-3-10,59.7,48.1,36.4,-99.9,-99.9,-99.9,0,0,100,30.65,30.39,21,5,21,0.00
2012-3-11,63.7,48.1,33.7,-99.9,-99.9,-99.9,0,0,100,30.70,30.58,13,3,14,0.00
2012-3-12,72.5,55.9,40.0,-99.9,-99.9,-99.9,0,0,100,30.58,30.41,14,3,18,0.00
2012-3-13,84.1,64.4,50.7,63.2,-94.1,-99.9,100,4,100,30.42,30.28,15,2,17,0.00
2012-3-14,72.3,61.5,57.2,65.0,34.6,-99.9,100,84,100,30.35,30.28,11,3,12,0.00
2012-3-16,83.4,71.7,65.4,-99.9,-99.9,-99.9,0,0,100,30.30,30.24,17,5,17,0.00
2012-3-17,83.1,68.4,58.6,-99.9,-99.9,-99.9,0,0,100,30.35,30.26,13,3,14,0.00
2012-3-18,82.4,63.6,59.4,-99.9,-99.9,-99.9,0,0,100,30.42,30.30,13,2,13,0.00
2012-3-19,77.5,64.9,57.7,-99.9,-99.9,-99.9,0,0,100,30.34,30.22,13,1,13,0.00
2012-3-20,79.4,66.1,53.4,-99.9,-99.9,-99.9,0,0,100,30.35,30.26,16,2,16,0.00
2012-3-21,81.3,67.7,57.3,-99.9,-99.9,-99.9,0,0,100,30.41,30.31,20,3,20,0.00
2012-3-22,79.5,68.7,62.0,-99.9,-99.9,-99.9,0,0,100,30.39,30.27,15,3,16,0.00
2012-3-23,82.3,68.6,57.3,-99.9,-99.9,-99.9,0,0,100,30.27,30.10,18,3,18,0.00
2012-3-24,80.1,68.4,62.5,-99.9,-99.9,-99.9,0,0,100,30.12,29.89,19,2,20,0.00
2012-3-25,79.0,64.3,55.4,-99.9,-99.9,-99.9,0,0,100,29.89,29.73,14,2,16,0.00
2012-3-26,83.9,64.8,54.5,-99.9,-99.9,-99.9,0,0,100,30.16,29.82,21,3,21,0.00
2012-3-27,63.5,53.1,43.1,-99.9,-99.9,-99.9,0,0,100,30.44,30.16,22,4,25,0.00
2012-3-28,43.4,41.9,41.0,-99.9,-99.9,-99.9,0,0,100,30.41,30.36,1,0,1,0.00
2012-3-29,68.1,64.6,61.9,68.1,64.6,61.8,100,100,100,30.02,29.97,11,1,11,0.00
2012-3-30,78.9,67.7,53.7,78.1,67.7,53.6,100,100,100,30.10,29.97,19,5,19,0.00
2012-3-31,82.3,69.6,65.7,82.1,69.6,65.7,100,100,100,30.01,29.81,17,2,20,0.00
2012-4-1,71.8,62.0,53.9,71.5,62.0,53.9,100,100,100,30.02,29.81,14,4,14,0.00
2012-4-2,84.1,68.0,56.2,84.1,68.0,56.2,100,100,100,30.04,29.75,14,4,24,0.00
2012-4-3,75.7,60.4,44.8,75.4,60.4,44.8,100,100,100,30.15,30.00,16,3,16,0.00
2012-4-4,92.2,71.7,58.4,91.9,71.7,58.3,100,100,100,30.01,29.73,15,3,18,0.00
2012-4-5,75.1,62.6,50.5,75.1,62.6,50.5,100,100,100,29.93,29.74,17,4,18,0.00
2012-4-6,62.8,48.8,40.0,61.8,48.8,39.9,100,100,100,30.17,29.82,19,3,19,0.00
2012-4-7,77.6,51.9,34.4,77.6,51.9,34.3,100,100,100,30.36,30.17,12,1,13,0.00
2012-4-8,87.5,63.6,44.1,86.9,63.6,44.1,100,100,100,30.29,30.06,14,3,14,0.00
2012-4-9,76.1,63.8,53.6,76.1,63.8,53.6,100,100,100,30.17,30.01,13,4,20,0.00
2012-4-10,86.5,67.3,53.0,86.3,67.3,53.0,100,100,100,30.10,29.92,18,4,20,0.00
2012-4-11,75.3,59.1,41.4,74.6,59.1,41.3,100,100,100,30.23,29.89,13,2,13,0.00
2012-4-12,76.0,51.7,35.8,75.5,51.7,35.8,100,100,100,30.32,30.22,11,2,11,0.00
2012-4-13,74.4,55.1,37.6,74.0,55.1,37.6,100,100,100,30.40,30.29,14,2,14,0.00
2012-4-14,78.8,60.4,40.4,78.1,60.4,40.3,100,100,100,30.49,30.35,20,3,20,0.00
2012-4-15,85.0,69.6,57.4,84.3,69.6,57.4,100,100,100,30.39,30.31,19,4,21,0.00
2012-4-16,90.1,72.2,58.0,89.6,72.2,57.9,100,100,100,30.36,30.25,17,4,19,0.00
2012-4-17,96.6,75.4,63.3,96.6,75.4,63.3,100,100,100,30.29,30.17,10,3,13,0.00
2012-4-18,86.8,74.6,63.6,86.7,74.6,63.4,100,100,100,30.23,30.11,15,3,16,0.00
2012-4-19,74.9,66.7,61.8,74.7,66.7,61.8,100,100,100,30.16,30.07,10,2,10,0.00
2012-4-20,79.6,66.3,58.9,78.3,66.3,58.9,100,100,100,30.12,29.97,13,3,13,0.00
2012-4-21,84.4,69.4,57.9,84.4,69.4,57.8,100,100,100,29.99,29.82,18,3,18,0.00
2012-4-22,72.5,64.4,53.9,72.2,64.4,53.9,100,100,100,29.83,29.47,21,3,22,0.00
2012-4-23,65.2,53.0,42.4,64.6,53.0,42.4,100,100,100,29.88,29.57,15,2,15,0.00
2012-4-24,75.2,54.9,39.1,75.1,54.9,38.9,100,100,100,29.96,29.83,19,2,19,0.00
2012-4-25,79.2,58.4,47.8,78.7,58.4,47.8,100,100,100,30.14,29.96,14,2,14,0.00
2012-4-26,87.6,71.9,56.7,87.1,71.9,56.7,100,100,100,30.06,29.86,26,5,26,0.00
2012-4-27,90.6,73.2,63.7,89.2,73.2,63.7,100,100,100,30.17,29.97,16,4,16,0.00
2012-4-28,81.5,68.9,64.7,81.5,68.9,64.7,100,100,100,30.24,30.13,10,3,10,0.00
2012-4-29,77.7,68.1,62.2,77.7,68.1,62.2,100,100,100,30.29,30.20,14,2,14,0.00
2012-4-30,79.6,69.2,62.3,79.1,69.2,62.3,100,100,100,30.36,30.27,14,4,15,0.00
2012-5-1,91.5,76.6,68.8,91.4,76.6,68.7,100,100,100,30.30,30.19,18,4,18,0.00
2012-5-2,99.0,77.0,65.3,98.6,77.0,65.3,100,100,100,30.27,30.17,16,3,16,0.00
2012-5-3,93.4,77.6,65.8,92.7,77.6,65.7,100,100,100,30.25,30.14,14,3,14,0.00
2012-5-4,97.5,76.5,65.5,97.5,76.5,65.4,100,100,100,30.18,30.03,11,2,13,0.00
2012-5-5,99.2,80.5,69.6,99.2,80.5,69.6,100,100,100,30.04,29.85,16,2,16,0.00
2012-5-6,83.5,72.0,63.2,82.9,72.0,63.2,100,100,100,30.09,29.88,16,3,17,0.00
2012-5-7,78.3,68.7,60.7,77.9,68.7,60.7,100,100,100,30.14,30.05,22,4,22,0.00
2012-5-8,84.0,72.2,59.8,83.1,72.2,59.8,100,100,100,30.11,29.99,16,3,16,0.00
2012-5-9,88.1,72.3,61.0,87.7,72.3,61.0,100,100,100,30.01,29.72,17,3,17,0.00
2012-5-10,87.6,68.3,55.9,85.8,68.3,55.9,100,100,100,30.04,29.76,13,1,13,0.00
2012-5-11,83.5,65.6,50.4,82.8,65.6,50.4,100,100,100,30.33,30.04,12,2,12,0.00
2012-5-12,81.8,66.7,52.1,81.8,66.7,52.1,100,100,100,30.45,30.32,13,2,14,0.00
2012-5-13,81.3,69.9,56.9,80.7,69.9,56.8,100,100,100,30.39,30.24,18,4,18,0.00
2012-5-14,82.6,73.6,68.6,82.2,73.6,68.5,100,100,100,30.24,30.07,20,5,20,0.00
2012-5-15,88.9,76.2,69.9,88.2,76.2,69.9,100,100,100,30.10,30.01,19,4,19,0.00
2012-5-16,86.7,73.9,68.1,86.4,73.9,68.1,100,100,100,30.08,29.99,17,2,17,0.00
2012-5-17,81.6,71.5,65.0,81.6,71.5,65.0,100,100,100,30.06,29.97,16,2,16,0.00
2012-5-18,72.2,65.6,55.5,71.9,65.6,55.5,100,100,100,30.12,30.02,17,3,17,0.00
2012-5-19,83.0,65.5,55.2,82.7,65.5,55.1,100,100,100,30.17,30.07,19,4,19,0.00
2012-5-20,78.5,66.2,51.1,77.3,66.2,51.1,100,100,100,30.17,30.09,14,3,14,0.00
2012-5-21,86.6,72.1,60.4,86.4,72.1,60.4,100,100,100,30.10,29.97,14,2,14,0.00
2012-5-22,89.3,74.0,64.1,89.1,-20.1,-99.9,100,47,100,29.99,29.90,18,2,19,0.00
2012-5-23,88.9,76.4,68.2,-99.9,-99.9,-99.9,0,0,100,30.05,29.92,18,4,20,0.00
2012-5-24,86.8,76.5,66.2,-99.9,-99.9,-99.9,0,0,100,30.13,30.02,17,4,17,0.00
2012-5-25,84.8,75.4,69.6,-99.9,-99.9,-99.9,0,0,100,30.16,30.09,21,3,21,0.00
2012-5-26,86.3,75.3,68.8,-99.9,-99.9,-99.9,0,0,100,30.15,30.09,27,5,27,0.00
2012-5-27,85.6,77.5,72.0,-99.9,-99.9,-99.9,0,0,100,30.18,30.08,20,6,23,0.00
2012-5-28,90.9,79.2,72.9,-99.9,-99.9,-99.9,0,0,100,30.17,30.09,16,4,17,0.00
2012-5-29,90.7,80.1,73.2,-99.9,-99.9,-99.9,0,0,100,30.11,29.93,19,5,20,0.00
2012-5-30,81.0,73.5,66.5,-99.9,-99.9,-99.9,0,0,100,29.93,29.58,25,4,27,0.00
2012-5-31,94.8,78.5,65.3,-99.9,-99.9,-99.9,0,0,100,29.99,29.89,19,2,19,0.00
2012-6-1,91.2,80.2,73.2,-99.9,-99.9,-99.9,0,0,100,29.99,29.84,22,5,22,0.00
2012-6-2,93.2,76.0,63.3,-99.9,-99.9,-99.9,0,0,100,29.96,29.82,14,1,14,0.00
2012-6-3,91.5,73.4,56.4,-99.9,-99.9,-99.9,0,0,100,30.03,29.91,14,2,14,0.00
2012-6-4,81.8,74.9,70.1,-99.9,-99.9,-99.9,0,0,100,29.92,29.72,10,2,10,0.00
2012-6-5,76.8,67.5,60.6,-99.9,-99.9,-99.9,0,0,100,29.97,29.72,16,3,16,0.00
2012-6-6,77.8,64.3,56.5,-99.9,-99.9,-99.9,0,0,100,30.06,29.95,19,3,20,0.00
2012-6-7,84.8,68.8,53.3,-99.9,-99.9,-99.9,0,0,100,30.12,30.06,14,2,14,0.00
2012-6-8,89.8,72.6,56.2,-99.9,-99.9,-99.9,0,0,100,30.12,30.05,15,2,15,0.00
2012-6-9,92.6,76.2,61.5,-99.9,-99.9,-99.9,0,0,100,30.18,30.09,16,2,16,0.00
2012-6-10,89.0,76.1,61.8,-99.9,-99.9,-99.9,0,0,100,30.25,30.15,16,3,16,0.00
2012-6-11,84.4,76.6,73.1,-99.9,-99.9,-99.9,0,0,100,30.25,30.16,19,4,19,0.00
2012-6-12,84.0,75.5,73.2,-99.9,-99.9,-99.9,0,0,100,30.16,29.97,20,5,20,0.00
2012-6-20,75.7,74.8,73.5,75.7,-92.6,-99.9,100,4,100,30.17,30.16,7,2,7,0.00
2012-6-21,95.9,80.4,68.8,-99.9,-99.9,-99.9,0,0,100,30.16,29.99,16,2,16,0.00
2012-6-22,97.8,81.6,70.9,-99.9,-99.9,-99.9,0,0,100,30.02,29.92,17,3,17,0.00
2012-6-23,98.3,81.3,72.9,-99.9,-99.9,-99.9,0,0,100,30.09,29.95,17,2,17,0.00
2012-6-24,91.0,78.9,71.1,-99.9,-99.9,-99.9,0,0,100,30.08,29.98,14,2,14,0.00
2012-6-25,96.7,80.3,72.2,-99.9,-99.9,-99.9,0,0,100,29.99,29.77,20,2,20,0.00
2012-6-26,79.4,72.3,62.0,-99.9,-99.9,-99.9,0,0,100,29.92,29.75,17,4,19,0.00
2012-6-27,86.3,71.3,55.0,-99.9,-99.9,-99.9,0,0,100,30.02,29.88,19,3,19,0.00
2012-6-28,102.1,79.3,59.1,99.9,-40.6,-99.9,100,32,100,30.08,29.97,17,2,17,0.00
2012-6-29,109.9,87.8,75.4,99.9,18.9,-99.9,100,64,100,29.98,29.82,13,3,13,0.00
2012-6-30,106.3,87.5,76.2,-99.9,-99.9,-99.9,0,0,100,29.95,29.85,13,2,13,0.00
2012-7-1,109.1,87.7,70.6,-99.9,-99.9,-99.9,0,0,100,30.12,29.91,18,3,18,0.00
2012-7-2,103.7,89.6,76.6,89.8,-98.7,-99.9,100,1,100,30.06,29.99,8,1,8,0.00
2012-7-3,100.7,85.0,72.4,-99.9,-99.9,-99.9,0,0,100,30.07,29.99,16,3,16,0.00
2012-7-4,105.6,87.8,78.7,-99.9,-99.9,-99.9,0,0,100,30.07,29.96,15,3,15,0.00
2012-7-5,104.6,85.7,76.2,-99.9,-99.9,-99.9,0,0,100,30.02,29.92,31,3,31,0.00
2012-7-6,100.3,86.8,78.2,-99.9,-99.9,-99.9,0,0,100,30.03,29.94,13,2,13,0.00
2012-7-7,102.7,87.7,79.1,-99.9,-99.9,-99.9,0,0,100,30.08,30.00,13,2,13,0.00
2012-7-8,106.3,88.9,79.5,-99.9,-99.9,-99.9,0,0,100,30.05,29.93,18,4,19,0.00
2012-7-9,103.8,88.8,78.9,-99.9,-99.9,-99.9,0,0,100,30.00,29.89,19,4,19,0.00
2012-7-10,96.7,79.3,71.5,-99.9,-99.9,-99.9,0,0,100,30.10,29.97,20,1,20,0.00
2012-7-11,91.9,77.6,72.0,-99.9,-99.9,-99.9,0,0,100,30.15,30.04,13,1,13,0.00
2012-7-12,88.4,78.8,73.0,-99.9,-99.9,-99.9,0,0,100,30.20,30.11,12,2,12,0.00
2012-7-13,90.9,80.7,72.4,-99.9,-99.9,-99.9,0,0,100,30.24,30.16,12,2,12,0.00
2012-7-14,93.9,82.0,71.9,-99.9,-99.9,-99.9,0,0,100,30.28,30.20,16,3,16,0.00
2012-7-15,94.4,82.0,71.6,-99.9,-99.9,-99.9,0,0,100,30.25,30.15,16,3,16,0.00
2012-7-16,100.4,82.8,71.4,-99.9,-99.9,-99.9,0,0,100,30.16,29.99,17,2,17,0.00
2012-7-17,98.3,83.9,75.3,-99.9,-99.9,-99.9,0,0,100,30.04,29.96,17,2,17,0.00
2012-7-18,101.2,84.3,74.6,-99.9,-99.9,-99.9,0,0,100,30.08,30.00,20,3,20,0.00
2012-7-19,101.0,85.6,77.5,-99.9,-99.9,-99.9,0,0,100,30.11,30.02,19,4,19,0.00
2012-7-20,100.3,85.7,77.6,-99.9,-99.9,-99.9,0,0,100,30.05,29.97,21,5,23,0.00
2012-7-21,100.1,85.0,78.0,-99.9,-99.9,-99.9,0,0,100,30.14,30.01,18,3,18,0.00
2012-7-22,105.4,87.3,79.2,-99.9,-99.9,-99.9,0,0,100,30.22,30.12,15,3,15,0.00
2012-7-23,102.9,87.3,77.2,-99.9,-99.9,-99.9,0,0,100,30.24,30.10,18,2,18,0.00
2012-7-24,76.4,75.4,74.7,75.8,-97.1,-99.9,100,2,100,29.97,29.84,9,1,9,0.00
2012-7-25,95.4,82.6,74.3,-99.9,-99.9,-99.9,0,0,100,29.99,29.89,13,2,14,0.00
2012-7-26,102.8,87.7,77.7,-99.9,-99.9,-99.9,0,0,100,29.98,29.87,18,4,18,0.00
2012-7-27,107.0,90.0,80.7,-99.9,-99.9,-99.9,0,0,100,29.99,29.89,20,4,20,0.00
2012-7-28,101.2,84.4,74.3,-99.9,-99.9,-99.9,0,0,100,30.04,29.96,22,2,22,0.00
2012-7-29,98.0,80.0,72.5,-99.9,-99.9,-99.9,0,0,100,30.04,29.95,19,2,19,0.00
2012-7-30,87.6,78.4,72.3,-99.9,-99.9,-99.9,0,0,100,30.06,29.98,16,2,17,0.00
2012-7-31,92.6,79.6,71.4,-99.9,-99.9,-99.9,0,0,100,30.03,29.92,14,2,14,0.00
2012-8-1,95.0,77.4,71.3,-99.9,-99.9,-99.9,0,0,100,29.98,29.88,20,1,20,0.00
2012-8-2,94.0,80.0,71.1,-99.9,-99.9,-99.9,0,0,100,30.04,29.91,14,2,14,0.00
2012-8-3,96.8,81.0,70.8,-99.9,-99.9,-99.9,0,0,100,30.14,29.99,15,2,15,0.00
2012-8-4,94.5,82.9,74.1,-99.9,-99.9,-99.9,0,0,100,30.25,30.10,15,3,15,0.00
2012-8-5,94.3,83.5,77.0,-99.9,-99.9,-99.9,0,0,100,30.27,30.17,17,3,18,0.00
2012-8-6,94.6,82.2,76.0,-99.9,-99.9,-99.9,0,0,100,30.19,30.06,16,2,16,0.00
2012-8-7,89.3,78.9,74.1,-99.9,-99.9,-99.9,0,0,100,30.09,30.00,14,1,14,0.00
2012-8-8,85.4,78.7,74.1,-99.9,-99.9,-99.9,0,0,100,30.06,29.97,12,2,12,0.00
2012-8-9,92.9,80.7,71.9,-99.9,-99.9,-99.9,0,0,100,30.04,29.92,14,2,14,0.00
2012-8-10,94.5,81.0,75.5,-99.9,-99.9,-99.9,0,0,100,29.97,29.89,21,4,21,0.00
2012-8-11,90.6,79.6,73.9,-99.9,-99.9,-99.9,0,0,100,29.99,29.92,23,4,23,0.00
2012-8-12,91.2,77.9,71.2,-99.9,-99.9,-99.9,0,0,100,30.04,29.97,14,2,14,0.00
2012-8-13,93.3,80.0,71.2,-99.9,-99.9,-99.9,0,0,100,30.07,29.97,13,2,13,0.00
2012-8-14,99.2,82.7,72.5,-99.9,-99.9,-99.9,0,0,100,30.01,29.91,14,2,14,0.00
2012-8-15,98.0,84.9,77.5,-99.9,-99.9,-99.9,0,0,100,29.97,29.89,16,2,16,0.00
2012-8-16,94.5,81.3,71.9,-99.9,-99.9,-99.9,0,0,100,30.02,29.93,13,2,13,0.00
2012-8-17,100.7,82.5,70.9,-99.9,-99.9,-99.9,0,0,100,30.01,29.86,13,2,13,0.00
2012-8-18,98.1,81.5,72.3,-99.9,-99.9,-99.9,0,0,100,29.92,29.82,10,1,10,0.00
2012-8-19,92.6,77.3,71.8,74.9,-75.3,-99.9,100,14,100,29.91,29.84,22,1,23,0.00
2012-8-20,92.9,78.0,72.5,92.3,78.0,72.5,100,100,100,29.98,29.85,10,1,10,0.00
2012-8-21,82.0,75.2,72.6,82.0,75.2,72.5,100,100,100,30.09,29.96,12,2,13,0.00
2012-8-22,86.4,76.0,70.4,85.4,76.0,70.4,100,100,100,30.10,30.02,13,2,13,0.00
2012-8-23,83.9,74.3,70.5,83.3,74.3,70.5,100,100,100,30.12,30.05,15,2,15,0.00
2012-8-24,74.9,70.8,67.8,74.7,70.8,67.7,100,100,100,30.12,30.03,17,1,17,0.00
2012-8-25,78.8,70.7,65.0,78.6,70.7,65.0,100,100,100,30.14,30.04,7,0,7,0.00
2012-8-26,90.3,74.7,62.6,89.7,74.7,62.6,100,100,100,30.19,30.09,18,2,18,0.00
2012-8-27,88.7,78.8,73.7,88.2,78.8,73.7,100,100,100,30.13,30.03,21,2,21,0.00
2012-8-28,78.5,75.4,73.3,78.5,75.4,73.3,100,100,100,30.07,30.01,15,0,17,0.00
2012-9-18,86.5,77.9,73.3,86.0,77.9,73.3,100,100,100,29.90,29.77,27,5,27,0.00
2012-9-19,77.5,70.5,62.1,76.7,70.5,62.1,100,100,100,30.09,29.84,13,2,13,0.00
2012-9-20,84.0,69.5,61.8,83.6,69.5,61.8,100,100,100,30.14,30.04,12,1,12,0.00
2012-9-21,81.4,70.9,60.9,81.2,70.9,60.9,100,100,100,30.10,30.03,12,2,12,0.00
2012-9-22,87.1,71.7,61.2,87.1,71.7,61.1,100,100,100,30.07,29.96,13,2,13,0.00
2012-9-23,89.4,73.2,64.0,87.9,73.2,64.0,100,100,100,30.10,29.97,14,2,14,0.00
2012-9-24,80.4,65.4,54.9,77.7,65.4,54.8,100,100,100,30.21,30.09,14,3,15,0.00
2012-9-25,81.8,65.3,51.1,81.0,65.3,51.1,100,100,100,30.28,30.19,15,2,15,0.00
2012-9-26,85.7,68.8,56.5,85.6,68.8,56.5,100,100,100,30.26,30.18,11,1,11,0.00
2012-9-27,87.3,70.7,58.7,86.8,70.7,58.7,100,100,100,30.23,30.11,13,1,13,0.00
2012-9-28,88.0,73.2,60.9,87.7,73.2,60.8,100,100,100,30.13,30.00,12,2,14,0.00
2012-9-29,81.8,72.9,67.0,81.8,72.9,67.0,100,100,100,30.02,29.87,7,0,7,0.00
2012-9-30,74.9,68.3,64.3,74.7,68.3,64.2,100,100,100,29.93,29.86,7,0,7,0.00
2012-10-1,79.6,71.4,65.6,79.6,18.3,-99.9,100,70,100,29.91,29.84,19,3,19,0.00
2012-10-2,84.5,77.9,74.6,-99.9,-99.9,-99.9,0,0,100,30.03,29.83,18,4,18,0.00
2012-10-3,88.9,78.5,73.5,-99.9,-99.9,-99.9,0,0,100,30.20,30.02,16,2,16,0.00
2012-10-4,92.3,77.3,69.2,-99.9,-99.9,-99.9,0,0,100,30.23,30.14,7,0,8,0.00
2012-10-5,94.2,72.7,63.7,-99.9,-99.9,-99.9,0,0,100,30.18,30.03,11,1,11,0.00
2012-10-6,85.5,73.0,59.9,-99.9,-99.9,-99.9,0,0,100,30.03,29.89,15,2,15,0.00
2012-10-7,85.0,70.5,58.0,-99.9,-99.9,-99.9,0,0,100,30.09,29.92,13,1,13,0.00
2012-10-8,68.8,59.1,54.9,-99.9,-99.9,-99.9,0,0,100,30.18,30.04,12,3,12,0.00
2012-10-24,64.5,62.5,60.7,64.5,62.5,60.7,100,100,100,30.17,30.16,0,0,0,0.00
2012-10-25,78.5,67.4,56.7,78.5,67.4,56.7,100,100,100,30.18,30.09,16,2,17,0.00
2012-10-26,74.8,66.5,58.5,65.0,-31.4,-99.9,100,43,100,30.09,29.82,18,3,18,0.00
2012-10-27,68.4,65.1,61.8,-99.9,-99.9,-99.9,0,0,100,29.82,29.51,23,6,23,0.00
2012-10-28,62.3,59.8,57.5,-99.9,-99.9,-99.9,0,0,100,29.54,29.45,23,3,23,0.00
2012-10-29,59.7,54.6,48.9,-99.9,-99.9,-99.9,0,0,100,29.54,29.43,18,4,18,0.00
2012-10-30,59.2,51.7,46.6,-99.9,-99.9,-99.9,0,0,100,29.72,29.47,15,4,16,0.00
2012-10-31,62.9,50.4,41.8,-99.9,-99.9,-99.9,0,0,100,29.85,29.72,13,2,13,0.00
2012-11-1,64.1,48.3,35.8,-99.9,-99.9,-99.9,0,0,100,29.94,29.78,11,1,11,0.00
2012-11-2,69.3,51.1,37.0,-99.9,-99.9,-99.9,0,0,100,30.03,29.85,16,2,16,0.00
2012-11-3,64.8,48.6,36.9,-99.9,-99.9,-99.9,0,0,100,30.18,30.02,9,1,9,0.00
2012-11-4,78.2,57.5,41.5,-99.9,-99.9,-99.9,0,0,100,30.15,29.93,16,2,16,0.00
2012-11-5,59.3,48.7,41.5,-99.9,-99.9,-99.9,0,0,100,30.17,29.99,15,2,15,0.00
2012-11-6,46.9,42.3,38.0,-99.9,-99.9,-99.9,0,0,100,30.16,29.94,15,2,15,0.00
2012-11-7,57.2,44.2,36.7,-99.9,-99.9,-99.9,0,0,100,30.02,29.87,10,1,10,0.00
2012-11-8,61.5,44.3,34.1,-99.9,-99.9,-99.9,0,0,100,30.19,30.02,9,1,9,0.00
2012-11-9,63.3,46.3,31.8,-99.9,-99.9,-99.9,0,0,100,30.36,30.19,5,0,5,0.00
2012-11-10,69.3,50.7,36.8,-99.9,-99.9,-99.9,0,0,100,30.48,30.36,11,1,11,0.00
2012-11-11,71.0,56.5,42.3,-99.9,-99.9,-99.9,0,0,100,30.58,30.47,14,2,14,0.00
2012-11-12,77.2,65.0,54.9,-99.9,-99.9,-99.9,0,0,100,30.49,30.26,13,2,13,0.00
2012-11-13,69.5,57.9,45.3,-99.9,-99.9,-99.9,0,0,100,30.40,30.22,23,2,23,0.00
2012-11-14,55.9,48.2,44.3,-99.9,-99.9,-99.9,0,0,100,30.48,30.38,16,4,18,0.00
2012-11-15,48.9,46.4,42.9,-99.9,-99.9,-99.9,0,0,100,30.38,30.25,17,2,17,0.00
2012-11-16,59.2,50.2,41.8,-99.9,-99.9,-99.9,0,0,100,30.42,30.26,14,2,14,0.00
2012-11-17,57.4,49.0,39.0,-99.9,-99.9,-99.9,0,0,100,30.47,30.40,19,4,20,0.00
2012-11-18,55.2,53.7,51.0,-99.9,-99.9,-99.9,0,0,100,30.40,30.24,32,6,32,0.00
2012-11-19,57.9,54.3,51.8,-99.9,-99.9,-99.9,0,0,100,30.26,30.15,21,4,21,0.00
2012-11-20,61.7,53.1,49.1,-99.9,-99.9,-99.9,0,0,100,30.19,30.09,13,2,13,0.00
2012-11-21,61.9,50.8,42.8,-99.9,-99.9,-99.9,0,0,100,30.20,30.10,18,2,18,0.00
2012-11-22,61.4,48.2,39.5,-99.9,-99.9,-99.9,0,0,100,30.26,30.15,19,2,19,0.00
2012-11-23,67.3,50.7,34.8,-99.9,-99.9,-99.9,0,0,100,30.25,29.94,13,1,13,0.00
2012-11-24,57.2,47.1,31.7,-99.9,-99.9,-99.9,0,0,100,30.22,29.93,11,2,11,0.00
2012-11-25,55.9,38.5,25.5,-99.9,-99.9,-99.9,0,0,100,30.33,30.17,9,1,9,0.00
2012-11-26,67.3,46.9,33.0,-99.9,-99.9,-99.9,0,0,100,30.34,30.24,11,1,11,0.00
2012-11-27,65.3,50.5,37.3,-99.9,-99.9,-99.9,0,0,100,30.31,30.18,7,1,7,0.00
2012-11-28,54.7,44.7,31.8,-99.9,-99.9,-99.9,0,0,100,30.50,30.25,15,2,15,0.00
2012-11-29,57.1,39.7,27.8,-99.9,-99.9,-99.9,0,0,100,30.62,30.49,11,1,11,0.00
2012-11-30,61.2,43.2,28.8,-99.9,-99.9,-99.9,0,0,100,30.55,30.41,9,1,9,0.00
2012-12-1,65.5,49.1,36.8,-99.9,-99.9,-99.9,0,0,100,30.53,30.41,11,1,11,0.00
2012-12-2,67.3,53.3,40.9,-99.9,-99.9,-99.9,0,0,100,30.52,30.37,10,1,10,0.00
2012-12-3,75.9,58.7,48.0,-99.9,-99.9,-99.9,0,0,100,30.42,30.31,10,1,10,0.00
2012-12-4,74.8,58.4,46.1,-99.9,-99.9,-99.9,0,0,100,30.45,30.30,12,1,12,0.00
2012-12-5,76.1,61.9,51.7,-99.9,-99.9,-99.9,0,0,100,30.30,30.16,21,2,21,0.00
2012-12-6,54.4,49.6,45.2,-99.9,-99.9,-99.9,0,0,100,30.35,30.25,14,3,14,0.00
2012-12-7,65.2,55.6,44.7,-99.9,-99.9,-99.9,0,0,100,30.26,30.05,16,2,16,0.00
2012-12-8,67.8,59.4,52.9,-99.9,-99.9,-99.9,0,0,100,30.16,30.04,7,1,7,0.00
2012-12-9,71.5,61.1,50.5,-99.9,-99.9,-99.9,0,0,100,30.25,30.07,13,2,13,0.00
2012-12-10,75.0,66.3,61.0,-99.9,-99.9,-99.9,0,0,100,30.08,29.86,21,4,21,0.00
2012-12-11,73.5,66.4,56.6,-99.9,-99.9,-99.9,0,0,100,30.15,29.84,16,2,16,0.00
2012-12-12,56.6,48.2,42.1,-99.9,-99.9,-99.9,0,0,100,30.34,30.13,19,5,20,0.00
2012-12-13,51.8,44.4,41.9,-99.9,-99.9,-99.9,0,0,100,30.41,30.21,23,4,23,0.00
2012-12-14,59.2,44.7,36.4,-99.9,-99.9,-99.9,0,0,100,30.47,30.31,15,2,16,0.00
2012-12-15,60.8,49.9,36.6,-99.9,-99.9,-99.9,0,0,100,30.38,30.18,7,1,7,0.00
2012-12-16,63.9,59.2,55.3,-99.9,-99.9,-99.9,0,0,100,30.19,29.99,10,1,10,0.00
2012-12-17,65.4,62.0,57.9,-99.9,-99.9,-99.9,0,0,100,30.00,29.75,17,2,18,0.00
2012-12-18,68.3,57.9,44.8,-99.9,-99.9,-99.9,0,0,100,30.02,29.76,18,3,18,0.00
2012-12-19,66.8,49.9,38.9,-99.9,-99.9,-99.9,0,0,100,30.23,30.01,8,1,8,0.00
2012-12-20,70.3,55.8,38.0,-99.9,-99.9,-99.9,0,0,100,30.26,29.65,30,5,32,0.00
2012-12-21,66.2,65.1,64.5,-99.9,-99.9,-99.9,0,0,100,29.66,29.60,30,14,34,0.00